Location: Corralito
(10.2667°N, 66.9500°W)
Time: 08:15:18
(UTC+00:00)

GPS 2-15 Rocket1 - Pass Details

Date: 12 December 2023
Orbit: 617 x 666 km, 19.8° (Epoch: 02 March)

Event Time Altitude Azimuth Distance (km) Brightness Sun altitude
Exits shadow 09:32:18 18° 253° (WSW) 1,503 4.6 -15.2°
Maximum altitude 09:34:57 32° 201° (SSW) 1,057 4.2 -14.6°
Drops below altitude 10° 09:39:07 10° 138° (SE) 1,986 6.7 -13.6°
Sets 09:41:41 0° 128° (SE) 2,901 8.1 -13.0°
